FW4174 Weather Reports


time (UTC)temp
F
wind
direction
speed
knots
gust
knots
rain 1hr
in
rain 24hr
in
rain mn
in
humidity
%
barometer
mb
20260507072548 37 311 0.9 1.7 0.00 0.00 0.00 70 1013.4
20260507072049 37 0 0.0 0.9 0.00 0.00 0.00 71 1013.4
20260507071556 37 0 0.0 0.0 0.00 0.00 0.00 71 1013.3
20260507071044 37 0 0.0 0.9 0.00 0.00 0.00 70 1013.2
20260507070544 37 0 0.0 0.9 0.00 0.00 0.00 70 1013.4
20260507070135 37 0 0.0 0.9 0.00 0.00 0.00 70 1013.5
20260507065544 38 0 0.0 2.6 0.00 0.00 0.00 69 1013.5
20260507065045 38 0 0.0 2.6 0.00 0.00 0.00 68 1013.6
20260507064553 38 332 0.0 2.6 0.00 0.00 0.00 67 1013.7
20260507064048 38 211 0.9 2.6 0.00 0.00 0.00 68 1013.7
20260507063544 38 199 0.9 2.6 0.00 0.00 0.00 69 1013.7
20260507063049 38 0 0.0 1.7 0.00 0.00 0.00 68 1013.6
20260507062548 39 0 0.0 2.6 0.00 0.00 0.00 67 1013.7
20260507062048 39 199 0.9 3.5 0.00 0.00 0.00 66 1013.9
20260507061549 40 236 0.9 3.5 0.00 0.00 0.00 65 1014.0
20260507061048 40 167 0.9 1.7 0.00 0.00 0.00 63 1014.0
20260507060547 40 360 0.9 1.7 0.00 0.00 0.00 63 1014.0
20260507060053 41 360 0.0 1.7 0.00 0.00 0.00 61 1014.0
20260507055549 41 0 0.0 1.7 0.00 0.00 0.00 62 1014.1
20260507055046 41 360 0.9 2.6 0.00 0.00 0.00 62 1014.2
20260507054554 41 0 0.0 2.6 0.00 0.00 0.00 61 1014.2
20260507054045 41 360 0.9 2.6 0.00 0.00 0.00 60 1014.1
20260507053545 41 28 0.0 1.7 0.00 0.00 0.00 60 1014.2
20260507053053 41 28 0.0 1.7 0.00 0.00 0.00 60 1014.2
20260507052546 41 28 0.0 1.7 0.00 0.00 0.00 59 1014.2
20260507052048 40 0 0.0 1.7 0.00 0.00 0.00 59 1014.2
20260507051551 40 0 0.0 1.7 0.00 0.00 0.00 59 1014.2
20260507051045 40 0 0.0 0.9 0.00 0.00 0.00 60 1014.2
20260507050550 40 0 0.0 0.9 0.00 0.00 0.00 61 1014.1
20260507045545 40 0 0.0 0.9 0.00 0.00 0.00 64 1014.2
20260507045044 40 28 0.0 0.9 0.00 0.00 0.00 65 1014.2
20260507044551 40 0 0.0 1.7 0.00 0.00 0.00 64 1014.3
20260507044044 40 28 0.0 1.7 0.00 0.00 0.00 63 1014.3
20260507043546 40 28 0.0 1.7 0.00 0.00 0.00 61 1014.2
20260507043049 40 28 0.9 1.7 0.00 0.00 0.00 58 1014.3
20260507042544 40 28 0.0 1.7 0.00 0.00 0.00 58 1014.3
20260507042045 40 28 0.9 1.7 0.00 0.00 0.00 58 1014.2
20260507041551 40 28 0.9 1.7 0.00 0.00 0.00 58 1014.3
20260507041045 40 28 0.0 1.7 0.00 0.00 0.00 57 1014.3
20260507040546 40 0 0.0 1.7 0.00 0.00 0.00 57 1014.3
20260507040052 40 0 0.0 1.7 0.00 0.00 0.00 57 1014.4
20260507035545 40 28 0.0 1.7 0.00 0.00 0.00 57 1014.3
20260507035045 40 0 0.0 1.7 0.00 0.00 0.00 57 1014.4
20260507034551 40 0 0.0 1.7 0.00 0.00 0.00 57 1014.4
20260507034045 39 0 0.0 0.9 0.00 0.00 0.00 58 1014.4
20260507033549 39 0 0.0 0.0 0.00 0.00 0.00 58 1014.4
20260507033052 39 0 0.0 0.9 0.00 0.00 0.00 58 1014.4
20260507032544 39 0 0.0 1.7 0.00 0.00 0.00 57 1014.4
20260507032045 40 0 0.0 1.7 0.00 0.00 0.00 56 1014.4
20260507031551 40 0 0.0 1.7 0.00 0.00 0.00 55 1014.4
20260507031048 40 0 0.0 2.6 0.00 0.00 0.00 55 1014.5
20260507030545 40 28 0.9 2.6 0.00 0.00 0.00 55 1014.5
20260507030105 41 28 0.9 2.6 0.00 0.00 0.00 54 1014.6
20260507025544 41 28 0.9 2.6 0.00 0.00 0.00 54 1014.5
20260507025044 41 28 1.7 2.6 0.00 0.00 0.00 54 1014.5
20260507024551 41 25 1.7 2.6 0.00 0.00 0.00 54 1014.5
20260507024049 41 32 0.9 2.6 0.00 0.00 0.00 54 1014.5
20260507023547 41 0 1.7 2.6 0.00 0.00 0.00 54 1014.5
20260507023052 41 32 0.0 2.6 0.00 0.00 0.00 54 1014.5
20260507022544 41 0 0.0 2.6 0.00 0.00 0.00 52 1014.3
20260507022045 42 32 0.9 2.6 0.00 0.00 0.00 52 1014.4
20260507021613 42 32 1.7 3.5 0.00 0.00 0.00 51 1014.3
20260507021045 43 32 0.9 3.5 0.00 0.00 0.00 50 1014.3
20260507020545 43 28 1.7 3.5 0.00 0.00 0.00 50 1014.2
20260507020104 44 26 1.7 3.5 0.00 0.00 0.00 50 1014.2
20260507015545 44 5 1.7 3.5 0.00 0.00 0.00 50 1014.2
20260507015044 44 23 1.7 2.6 0.00 0.00 0.00 49 1014.2
20260507014612 44 25 1.7 2.6 0.00 0.00 0.00 49 1014.1
20260507014045 45 19 1.7 2.6 0.00 0.00 0.00 49 1014.1
20260507013544 45 360 0.9 2.6 0.00 0.00 0.00 48 1014.2
20260507013056 45 0 0.9 2.6 0.00 0.00 0.00 48 1014.3
20260507012545 46 352 0.0 4.3 0.00 0.00 0.00 47 1014.2
20260507012045 46 9 0.9 5.2 0.00 0.00 0.00 46 1014.3
20260507011554 47 5 1.7 6.1 0.00 0.00 0.00 45 1014.2
20260507011045 47 321 3.5 7.0 0.00 0.00 0.00 45 1014.3
20260507010548 47 15 2.6 7.0 0.00 0.00 0.00 44 1014.3
20260507010105 48 17 3.5 7.8 0.00 0.00 0.00 44 1014.2
20260507005546 48 346 3.5 7.8 0.00 0.00 0.00 44 1014.2
20260507005045 48 352 2.6 7.8 0.00 0.00 0.00 44 1014.3
20260507004557 48 30 2.6 7.8 0.00 0.00 0.00 43 1014.2
20260507004045 48 30 3.5 7.8 0.00 0.00 0.00 43 1014.2
20260507003545 48 330 4.3 7.8 0.00 0.00 0.00 44 1014.2
20260507003055 48 340 2.6 5.2 0.00 0.00 0.00 44 1014.2
20260507002545 48 323 1.7 4.3 0.00 0.00 0.00 43 1014.2
20260507002045 48 325 0.9 5.2 0.00 0.00 0.00 43 1014.3
20260507001602 49 0 0.9 7.8 0.00 0.00 0.00 44 1014.3
20260507001045 49 338 2.6 10.4 0.00 0.00 0.00 42 1014.3
20260507000544 49 350 3.5 10.4 0.00 0.00 0.00 41 1014.3
20260507000051 49 316 3.5 8.7 0.00 0.00 0.00 42 1014.4
20260506235544 50 305 0.0 7.0 0.00 0.00 0.00 42 1014.4
20260506235044 50 326 1.7 7.0 0.00 0.00 0.00 41 1014.5
20260506234550 50 350 0.9 7.0 0.00 0.00 0.00 42 1014.5
20260506234044 50 338 2.6 7.0 0.00 0.00 0.00 41 1014.5
20260506233545 50 329 2.6 8.7 0.00 0.00 0.00 42 1014.5
20260506233055 50 311 2.6 8.7 0.00 0.00 0.00 43 1014.6
20260506232545 50 342 4.3 8.7 0.00 0.00 0.00 42 1014.6
20260506232045 51 328 4.3 8.7 0.00 0.00 0.00 42 1014.6
20260506231550 51 326 2.6 6.1 0.00 0.00 0.00 42 1014.7
20260506231048 51 331 1.7 6.1 0.00 0.00 0.00 40 1014.6
20260506230548 51 268 1.7 5.2 0.00 0.00 0.00 41 1014.8
20260506230103 52 287 1.7 5.2 0.00 0.00 0.00 40 1014.7
20260506225545 52 322 0.9 6.1 0.00 0.00 0.00 39 1014.8
20260506225045 53 27 1.7 6.1 0.00 0.00 0.00 40 1014.8
20260506224558 53 294 1.7 7.0 0.00 0.00 0.00 39 1014.7
20260506224045 53 341 1.7 7.0 0.00 0.00 0.00 40 1014.8
20260506223543 52 287 3.5 7.0 0.00 0.00 0.00 40 1014.8
20260506223049 52 258 1.7 5.2 0.00 0.00 0.00 40 1014.8
20260506222544 52 300 1.7 6.1 0.00 0.00 0.00 41 1014.9
20260506222044 52 244 1.7 6.1 0.00 0.00 0.00 41 1014.9
20260506221553 53 267 3.5 6.1 0.00 0.00 0.00 40 1015.0
20260506221044 52 334 0.9 7.8 0.00 0.00 0.00 42 1015.0
20260506220544 51 17 1.7 7.8 0.00 0.00 0.00 44 1015.0
20260506220052 51 279 3.5 7.8 0.00 0.00 0.00 42 1015.1
20260506215549 52 323 3.5 7.8 0.00 0.00 0.00 41 1015.1
20260506215045 52 9 1.7 7.0 0.00 0.00 0.00 42 1015.1
20260506214550 52 279 2.6 7.0 0.00 0.00 0.00 43 1015.2
20260506214045 51 323 1.7 7.8 0.00 0.00 0.00 44 1015.3
20260506213545 51 319 2.6 7.8 0.00 0.00 0.00 42 1015.4
20260506213053 51 352 1.7 5.2 0.00 0.00 0.00 44 1015.4
20260506212549 51 0 1.7 7.8 0.00 0.00 0.00 44 1015.5
20260506212048 52 255 1.7 7.8 0.00 0.00 0.00 40 1015.5
20260506211550 51 336 2.6 5.2 0.00 0.00 0.00 44 1015.6
20260506211046 50 344 0.9 7.8 0.00 0.00 0.00 45 1015.7
20260506210547 50 309 1.7 7.8 0.00 0.00 0.00 43 1015.9
20260506210054 50 332 2.6 7.0 0.00 0.00 0.00 45 1015.9
20260506205543 51 281 1.7 7.0 0.00 0.00 0.00 42 1016.0
20260506205044 51 290 2.6 7.0 0.00 0.00 0.00 43 1016.1
20260506204551 51 291 0.9 7.8 0.00 0.00 0.00 46 1016.1
20260506204045 51 255 2.6 7.8 0.00 0.00 0.00 44 1016.1
20260506203544 51 242 1.7 7.0 0.00 0.00 0.00 42 1016.1
20260506203053 51 308 1.7 7.0 0.00 0.00 0.00 43 1016.1
20260506202544 52 272 1.7 7.0 0.00 0.00 0.00 43 1016.2
20260506202043 51 255 2.6 7.0 0.00 0.00 0.00 43 1016.2
20260506201607 51 273 2.6 7.8 0.00 0.00 0.00 44 1016.2
20260506201046 51 319 2.6 7.8 0.00 0.00 0.00 43 1016.2
20260506200545 51 277 1.7 7.8 0.00 0.00 0.00 44 1016.2
20260506200051 52 337 2.6 7.8 0.00 0.00 0.00 43 1016.2
20260506195545 52 11 3.5 9.6 0.00 0.00 0.00 43 1016.2
20260506195045 51 116 2.6 9.6 0.00 0.00 0.00 44 1016.2
20260506194553 50 105 1.7 6.1 0.00 0.00 0.00 46 1016.2
20260506194045 49 5 1.7 6.1 0.00 0.00 0.00 45 1016.3
20260506193544 49 275 1.7 6.1 0.00 0.00 0.00 46 1016.2
20260506193058 49 263 1.7 7.8 0.00 0.00 0.00 45 1016.3
20260506192545 50 34 1.7 7.8 0.00 0.00 0.00 45 1016.3
20260506192046 50 306 2.6 7.8 0.00 0.00 0.00 45 1016.3
20260506191602 50 264 1.7 7.8 0.00 0.00 0.00 47 1016.4
20260506191046 49 288 1.7 7.8 0.00 0.00 0.00 48 1016.4
20260506190547 48 335 1.7 7.8 0.00 0.00 0.00 47 1016.4
20260506190056 48 16 2.6 7.8 0.00 0.00 0.00 47 1016.3
20260506185545 48 265 2.6 7.8 0.00 0.00 0.00 47 1016.4
20260506185044 48 333 3.5 7.8 0.00 0.00 0.00 49 1016.5
20260506184558 48 360 2.6 7.0 0.00 0.00 0.00 48 1016.6
20260506184045 47 331 2.6 7.0 0.00 0.00 0.00 52 1016.6
20260506183545 47 249 2.6 7.0 0.00 0.00 0.00 49 1016.6
20260506183100 47 20 1.7 7.0 0.00 0.00 0.00 48 1016.5
20260506182543 47 285 1.7 7.0 0.00 0.00 0.00 48 1016.6
20260506182045 47 188 2.6 7.0 0.00 0.00 0.00 48 1016.6
20260506181553 47 277 1.7 5.2 0.00 0.00 0.00 48 1016.6
20260506181044 47 265 1.7 7.8 0.00 0.00 0.00 49 1016.8
20260506180544 47 259 1.7 7.8 0.00 0.00 0.00 49 1016.7
20260506180053 47 278 0.9 7.0 0.00 0.00 0.00 51 1016.8
20260506175543 46 271 2.6 7.0 0.00 0.00 0.00 49 1016.8
20260506175045 46 294 3.5 7.0 0.00 0.00 0.00 50 1017.0
20260506174552 46 245 1.7 7.0 0.00 0.00 0.00 50 1016.9
20260506174044 46 249 0.9 7.0 0.00 0.00 0.00 52 1016.9
20260506173545 46 352 1.7 7.0 0.00 0.00 0.00 52 1016.9
20260506173112 45 305 1.7 6.1 0.00 0.00 0.00 52 1017.0
20260506172546 45 294 2.6 6.1 0.00 0.00 0.00 50 1017.0
20260506172044 45 274 0.9 7.0 0.00 0.00 0.00 52 1017.1
20260506171558 45 321 1.7 7.0 0.00 0.00 0.00 54 1017.1
20260506171045 45 324 2.6 7.0 0.00 0.00 0.00 52 1017.1
20260506170545 45 306 2.6 4.3 0.00 0.00 0.00 53 1017.1
20260506170057 45 340 1.7 6.1 0.00 0.00 0.00 52 1017.2
20260506165545 45 302 1.7 7.0 0.00 0.00 0.00 55 1017.2
20260506165046 44 296 2.6 7.0 0.00 0.00 0.00 52 1017.3
20260506164555 44 17 2.6 6.1 0.00 0.00 0.00 53 1017.2
20260506164045 44 290 2.6 7.0 0.00 0.00 0.00 54 1017.2
20260506163546 44 0 1.7 7.0 0.00 0.00 0.00 54 1017.4
20260506163102 44 286 2.6 7.0 0.00 0.00 0.00 54 1017.3
20260506162545 44 0 1.7 7.0 0.00 0.00 0.00 54 1017.3
20260506162043 43 279 1.7 7.0 0.00 0.00 0.00 54 1017.3
20260506161550 43 293 1.7 7.0 0.00 0.00 0.00 54 1017.4
20260506161043 43 279 1.7 7.0 0.00 0.00 0.00 53 1017.3
20260506160543 43 288 1.7 5.2 0.00 0.00 0.00 54 1017.3
20260506160052 43 281 2.6 5.2 0.00 0.00 0.00 54 1017.2
20260506155543 43 278 1.7 6.1 0.00 0.00 0.00 54 1017.3
20260506155043 43 292 1.7 6.1 0.00 0.00 0.00 53 1017.2
20260506154601 43 292 1.7 6.1 0.00 0.00 0.00 53 1017.2
20260506154047 43 275 1.7 6.1 0.00 0.00 0.00 53 1017.2
20260506153547 43 5 1.7 7.0 0.00 0.00 0.00 53 1017.1
20260506153051 43 292 2.6 7.0 0.00 0.00 0.00 52 1017.1
20260506152544 43 278 1.7 7.0 0.00 0.00 0.00 54 1017.1
20260506152049 43 261 0.9 7.0 0.00 0.00 0.00 55 1017.0
20260506151551 43 31 1.7 6.1 0.00 0.00 0.00 55 1017.1
20260506151042 43 296 1.7 6.1 0.00 0.00 0.00 54 1017.1
20260506150545 43 296 1.7 6.1 0.00 0.00 0.00 56 1017.1
20260506150055 42 290 1.7 6.1 0.00 0.00 0.00 56 1017.1
20260506145544 42 271 1.7 5.2 0.00 0.00 0.00 55 1017.0
20260506145042 42 0 1.7 6.1 0.00 0.00 0.00 57 1017.1
20260506144554 42 292 1.7 6.1 0.00 0.00 0.00 57 1017.1
20260506144045 41 307 1.7 6.1 0.00 0.00 0.00 57 1017.1
20260506143543 41 305 1.7 4.3 0.00 0.00 0.00 57 1017.2
20260506143054 41 296 0.9 3.5 0.00 0.00 0.00 57 1017.2
20260506142543 41 244 1.7 3.5 0.00 0.00 0.00 58 1017.1
20260506142046 41 292 0.9 5.2 0.00 0.00 0.00 59 1017.1
20260506141554 41 265 0.9 5.2 0.00 0.00 0.00 60 1017.0
20260506141046 41 294 0.9 4.3 0.00 0.00 0.00 60 1017.0
20260506140546 41 284 1.7 4.3 0.00 0.00 0.00 61 1017.1
20260506140101 41 294 0.0 2.6 0.00 0.00 0.00 63 1017.1
20260506135546 40 0 0.0 2.6 0.00 0.00 0.00 64 1017.0
20260506135045 40 286 0.0 2.6 0.00 0.00 0.00 64 1017.1
20260506134552 40 0 0.9 2.6 0.00 0.00 0.00 64 1017.1
20260506134045 40 279 0.0 2.6 0.00 0.00 0.00 65 1017.0
20260506133546 40 292 0.9 4.3 0.00 0.00 0.00 65 1016.9
20260506133100 40 279 0.9 4.3 0.00 0.00 0.00 65 1017.0
20260506132546 40 306 0.9 3.5 0.00 0.00 0.00 64 1017.0
20260506132045 39 294 0.9 3.5 0.00 0.00 0.00 66 1017.0
20260506131552 39 0 0.9 3.5 0.00 0.00 0.00 66 1016.9
20260506131044 39 297 0.9 3.5 0.00 0.00 0.00 66 1016.8
20260506130546 39 294 0.9 3.5 0.00 0.00 0.00 66 1016.7
20260506130056 39 276 0.9 2.6 0.00 0.00 0.00 66 1016.8
20260506125545 39 296 0.9 2.6 0.00 0.00 0.00 66 1016.7
20260506125045 39 270 0.9 2.6 0.00 0.00 0.00 66 1016.7
20260506124559 39 290 0.0 1.7 0.00 0.00 0.00 67 1016.6
20260506124045 39 275 0.0 2.6 0.00 0.00 0.00 67 1016.5
20260506123548 39 281 0.0 2.6 0.00 0.00 0.00 67 1016.6
20260506123050 39 278 0.0 2.6 0.00 0.00 0.00 67 1016.4
20260506122545 39 0 0.9 2.6 0.00 0.00 0.00 67 1016.4
20260506122044 38 0 0.0 2.6 0.00 0.00 0.00 67 1016.2
20260506121553 38 292 0.0 1.7 0.00 0.00 0.00 68 1016.2
20260506121044 38 292 0.0 1.7 0.00 0.00 0.00 67 1016.2
20260506120545 38 0 0.0 1.7 0.00 0.00 0.00 67 1016.1
20260506120108 38 0 0.0 1.7 0.00 0.00 0.00 68 1016.1
20260506115546 38 292 0.0 1.7 0.00 0.00 0.00 67 1015.9
20260506115044 38 0 0.0 1.7 0.00 0.00 0.00 67 1015.9
20260506114603 38 0 0.0 0.9 0.00 0.00 0.00 67 1015.9
20260506114045 38 0 0.0 0.9 0.00 0.00 0.00 67 1015.7
20260506113545 38 0 0.0 1.7 0.00 0.00 0.00 67 1015.6
20260506113050 38 292 0.0 1.7 0.00 0.00 0.00 67 1015.5
20260506112545 38 292 0.0 1.7 0.00 0.00 0.00 67 1015.5
20260506112045 37 296 0.0 0.9 0.00 0.00 0.00 67 1015.5
20260506111554 38 0 0.0 2.6 0.00 0.00 0.00 67 1015.4
20260506111045 38 0 0.9 2.6 0.00 0.00 0.00 66 1015.4
20260506110545 37 296 0.0 1.7 0.00 0.00 0.00 67 1015.3
20260506110053 37 296 0.0 1.7 0.00 0.00 0.00 66 1015.3
20260506105549 37 0 0.0 1.7 0.00 0.00 0.00 67 1015.2
20260506105045 37 0 0.0 1.7 0.00 0.00 0.00 67 1015.0
20260506104552 37 0 0.0 1.7 0.00 0.00 0.00 67 1014.9
20260506104045 37 296 0.0 1.7 0.00 0.00 0.00 68 1014.9
20260506103544 37 319 0.0 1.7 0.00 0.00 0.00 68 1014.8
20260506103048 37 0 0.0 1.7 0.00 0.00 0.00 68 1015.0
20260506102545 37 0 0.0 1.7 0.00 0.00 0.00 68 1015.1
20260506102044 37 0 0.0 1.7 0.00 0.00 0.00 67 1015.0
20260506101553 37 319 0.0 0.9 0.00 0.00 0.00 67 1014.8
20260506101046 37 0 0.0 0.9 0.00 0.00 0.00 68 1014.8
20260506100546 37 0 0.0 0.9 0.00 0.00 0.00 67 1014.9
20260506100051 37 0 0.0 0.9 0.00 0.00 0.00 67 1015.0
20260506095546 37 0 0.0 1.7 0.00 0.00 0.00 67 1015.1
20260506095046 37 0 0.0 2.6 0.00 0.00 0.00 66 1015.1
20260506094552 38 0 0.9 2.6 0.00 0.00 0.00 65 1015.1
20260506094045 38 319 0.0 1.7 0.00 0.00 0.00 65 1015.0
20260506093545 38 319 0.0 1.7 0.00 0.00 0.00 65 1014.9
20260506093110 38 319 0.0 1.7 0.00 0.00 0.00 65 1014.8
20260506092545 38 319 0.9 1.7 0.00 0.00 0.00 65 1014.7
20260506092044 38 319 0.0 1.7 0.00 0.00 0.00 65 1014.9
20260506091551 38 0 0.0 1.7 0.00 0.00 0.00 65 1014.8
20260506091044 38 0 0.0 2.6 0.00 0.00 0.00 65 1014.7
20260506090545 38 0 0.0 2.6 0.00 0.00 0.00 65 1014.7
20260506090058 38 319 0.9 2.6 0.00 0.00 0.00 65 1014.7
20260506085545 38 0 0.0 1.7 0.00 0.00 0.00 65 1014.6
20260506085047 38 0 0.0 1.7 0.00 0.00 0.00 65 1014.8
20260506084548 38 319 0.9 1.7 0.00 0.00 0.00 65 1014.8
20260506084045 38 319 0.9 1.7 0.00 0.00 0.00 65 1014.7
20260506083548 38 319 0.0 1.7 0.00 0.00 0.00 65 1014.6
20260506083055 38 0 0.0 1.7 0.00 0.00 0.00 65 1014.6
20260506082544 38 319 0.9 1.7 0.00 0.00 0.00 64 1014.6
20260506082044 38 319 0.0 1.7 0.00 0.00 0.00 65 1014.9
20260506081549 38 0 0.0 1.7 0.00 0.00 0.00 65 1015.0
20260506081045 38 319 0.9 1.7 0.00 0.00 0.00 64 1014.9
20260506080545 38 319 0.0 1.7 0.00 0.00 0.00 64 1014.8
20260506080107 38 0 0.0 1.7 0.00 0.00 0.00 64 1014.6
20260506073105 38 0 0.9 1.7 0.00 0.00 0.00 62 1014.5